User: anonymous   Login
Location: Montr�al
(45.5000°N, 73.5830°W)
Time: 22:14:18
(UTC-04:00)
Language:

Cosmos 2369 - Orbit

View from above orbital plane
View from above orbital plane
View from above satellite
View from above satellite

Ground track
Ground track

The orbit data is extracted from the following two-line orbital elements,

1 26069U 00006A   15188.30144396  .00000055  00000-0  54693-4 0  9993
2 26069 070.9958 048.2278 0012542 235.1651 243.4683 14.13313261795681
Epoch (UTC): 07 July 2015 07:14:04
Eccentricity: 0.0012542
inclination: 70.9958°
perigee height: 839 km
apogee height: 857 km
right ascension of ascending node: 48.2278°
argument of perigee: 235.1651°
revolutions per day: 14.13313261
mean anomaly at epoch: 243.4683°
orbit number at epoch: 79568

The dashed part of the orbit path shows where the satellite is in the earth's shadow,  

DLR